NOAA 16 DEB

Satellite information

Favourite Embed

Satellite Type and Status

DEBRISIN ORBIT

Key statistics

Satellite NOAA 16 DEB at a glance.

Uptime

9056

Days in orbit

Revolutions

≈ 14.1

Per day

Orbit

SSO

Sun Synchronous Orbit

Inclination

98.6

Latest

Satellite identification and parameters

Extended collection of information and parameters for NOAA 16 DEB.

Object identification

Identified? True

Debris? True

Object name: NOAA 16 DEB

International designator: 2000-055EC

Object number (NORAD): 41223

Object ID (CCSDS): 41223

Country: UNITED STATES OF AMERICA (US)

Current information (Y/N): Y

RCS size: SMALL

Orbital parameters

Period: 101.925 minutes

Inclination: 98.6471 deg

SMA: 7227.931 km

Apoapsis: 873.991 km

Periapsis: 825.6 km

RAAN: 190.7071 deg

Eccentricy: 0.0033475

Argument of periapsis: 153.5757 deg

Mean anomaly: 206.7132 deg

Mean motion: 14.12803605 rev/day

Mean motion (dot): 0.00001359 rev/day2

B* drag term: 0.00075023 1/REarth

Two-line elements (TLE)

Creation date: July 6, 2025, 6:05 p.m.

Reference frame: TEME

Reference center: EARTH

Epoch: July 5, 2025, 11:37 p.m. UTC

TLE line 0: 0 NOAA 16 DEB

TLE line 1: 1 41223U 00055EC 25186.98416893 .00001359 00000-0 75023-3 0 9990

TLE line 2: 2 41223 98.6471 190.7071 0033475 153.5757 206.7132 14.12803605491093

Live tracking on map

Real-time ground track for satellite NOAA 16 DEB.

In-orbit conjunctions

A list of the most updated potential collisions computed for object NOAA 16 DEB.

Target Orbit TCA Probability of collision Miss distance Type
FENGYUN 1C DEB SSO 2025-07-07 04:10:43 0.0002200831 200.0 (m) DEBRIS
FENGYUN 1C DEB SSO 2025-02-27 14:41:20 0.0002770296 47.0 (m) DEBRIS
CZ-2D DEB SSO 2024-08-28 01:37:01 0.000109769 393.0 (m) DEBRIS

Associated space launch

The NOAA K, L and M POES satellites begin the fifth generation of improved environmental monitoring in support of NOAA missions. The instrument payload has significant improvements and additions/deletions. The instrument changes have effected the spacecraft subsystems and data formats.

NOAA 16 DEB was lifted into orbit during the mission ‘Titan II SLV | NOAA 16’, on board a Titan II SLV space rocket.

The launch took place on Sept. 21, 2000, 10:22 a.m. from Space Launch Complex 4W.

For more information about the launch, click the button.

Launch to space Titan II SLV | NOAA 16
Titan II SLV | NOAA 16

Agency: N/A

Status: Launch Successful

Launch date: Sept. 21, 2000, 10:22 a.m. UTC

Rocket: Titan II SLV

Launch pad: Space Launch Complex 4W

Location: Vandenberg SFB, CA, USA

...

Latest news about this satellite

There are no fresh news available about this satellite. Check back as we update our databases every day.


Newsletter sign-up

Weekly statistics, charts and insights to help you stay on top of the space industry.